Weather in Maksimovka

Russia / Primorsky Krai     46°05′17″N   137°53′29″E
temp.,
°C
wind,
m/s
gust,
m/s
humid.,
%
clouds,
%
prec.,
mm/h
press.,
hPa
HPBL,
m
13 may, thu
thu1301:00+6ssw81496100 0.1 1016408
04:00+6ssw9149798 0.1 1015386
07:00+6sw689799 0.0 1014186
10:00+6ssw8109456 0.0 1013216
13:00+6ssw10139566 0.0 1011233
16:00+6ssw10149573 0.0 1009226
19:00+6ssw8119576 0.2 1009167
22:00+7sw55920 0.2 101043
14 may, fri
fri1401:00+7wsw338196 0.0 101021
04:00+8wnw33751 0.0 100913
07:00+9wnw33711 0.0 101017
10:00+13sw2452100 0.0 1010236
13:00+10s577384 0.1 1010117
16:00+12ssw785871 0.1 1008341
19:00+9nne567528 0.0 101160
22:00+6nne6992100 0.0 1014135
15 may, sat
sat1501:00+6nne5792100 0.0 1014105
04:00+6nne5794100 0.0 1013117
07:00+6nne3492100 0.0 101281
10:00+5ene3497100 2.0 101289
13:00+6ssw4699100 3.8 1009152
16:00+6ssw5799100 4.0 1007144
19:00+6ssw5699100 0.2 100587
22:00+7sw3499100 1.6 100635
16 may, sun
sun1601:00+7sw3396100 0.0 100524
04:00+7ssw5597100 0.2 100543
07:00+8sw449356 0.0 100435
10:00+11sw457295 0.0 1004159
13:00+12sw576494 0.0 1003205
16:00+12sw4662100 0.0 1002201
19:00+11sw236799 0.0 100350
22:00+10w11725 0.0 100410
17 may, mon
mon1701:00+10nw44680 0.0 100413
04:00+9wnw45690 0.0 100428
07:00+9wnw45720 0.0 100538
10:00+12nnw34582 0.0 1005143
13:00+11ssw67664 0.0 1005244
16:00+12ssw810639 0.0 1003321
19:00+12sw1014625 0.0 100498
22:00+10sw787014 0.0 100551